Location: Palomar Mountain Lodge
(33.3110°N, 116.8495°W)
Time: 16:27:27
(UTC-07:00)

Cosmos 2181 Rocket - Pass Details

Date: 12 July 2018
Orbit: 951 x 1016 km, 82.9° (Epoch: 21 July)

Event Time Altitude Azimuth Distance (km) Brightness Sun altitude
Exits shadow 22:16:12 49° 139° (SE) 1,217 4.0 -23.4°
Maximum altitude 22:17:30 60° 92° (E) 1,092 4.0 -23.5°
Drops below altitude 10° 22:23:31 10° 14° (NNE) 2,686 6.8 -24.3°
Sets 22:26:02 0° 11° (N) 3,631 7.6 -24.7°
